Change the Weather History Date:

Sunday, September 29, 2013

  Actual Average Record
Temperature  
Mean Temperature 66 °F -  
Max Temperature 87 °F 82 °F 96 °F (2010)
Min Temperature 46 °F 49 °F 31 °F (1945)
Cooling Degree Days 2    
Growing Degree Days 16 (Base 50)    
Moisture  
Dew Point 33 °F    
Average Humidity 36    
Maximum Humidity 66    
Minimum Humidity 10    
Precipitation  
Precipitation 0.00 in - - ()
Sea Level Pressure  
Sea Level Pressure 29.94 in    
Wind  
Wind Speed 9 mph (WSW)    
Max Wind Speed 18 mph    
Max Gust Speed 23 mph    
Visibility 10 miles    
Events      
Averages and records for this station are not official NWS values.
T = Trace of Precipitation, MM = Missing Value Source: NWS Daily Summary

Daily Weather History Graph

Daily Weather History Graph

Search for Another Location

Airport or City:

Trip Planner

Search our weather history database for the weather conditions in past years. The results will help you decide how hot, cold, wet, or windy it might be!

Date:

Astronomy

Sep. 29, 2013 Rise Set
Actual Time 6:47 AM MDT 6:40 PM MDT
Civil Twilight 6:22 AM MDT 7:05 PM MDT
Nautical Twilight 5:53 AM MDT 7:35 PM MDT
Astronomical Twilight 5:23 AM MDT 8:04 PM MDT
Moon 1:41 AM MDT (9/29) 3:29 PM MDT (9/29)
Length of Visible Light 12h 43m
Length of Day
11h 52m
Waning Crescent, 26% of the Moon is Illuminated
Sep 29
Waning Crescent
Oct 4
New
Oct 11
First Quarter
Oct 18
Full
Oct 26
Last Quarter

Hourly Weather History & Observations

Time (MDT) Temp. Dew Point Humidity Pressure Visibility Wind Dir Wind Speed Gust Speed Precip Events Conditions
12:53 AM 48.0 °F 36.0 °F 63% 30.12 in 10.0 mi SW 6.9 mph - N/A   Clear
1:53 AM 52.0 °F 35.1 °F 53% 30.09 in 10.0 mi SSW 5.8 mph - N/A   Clear
2:53 AM 48.0 °F 36.0 °F 63% 30.08 in 10.0 mi SW 3.5 mph - N/A   Clear
3:53 AM 50.0 °F 35.1 °F 57% 30.06 in 10.0 mi SW 6.9 mph - N/A   Clear
4:53 AM 48.0 °F 36.0 °F 63% 30.07 in 10.0 mi SW 8.1 mph - N/A   Clear
5:53 AM 48.0 °F 36.0 °F 63% 30.06 in 10.0 mi West 4.6 mph - N/A   Clear
6:53 AM 46.9 °F 36.0 °F 66% 30.07 in 10.0 mi SW 6.9 mph - N/A   Clear
7:53 AM 53.1 °F 39.0 °F 59% 30.06 in 10.0 mi SW 6.9 mph - N/A   Clear
8:53 AM 61.0 °F 39.0 °F 44% 30.06 in 10.0 mi SW 12.7 mph - N/A   Clear
9:53 AM 66.9 °F 37.9 °F 34% 30.03 in 10.0 mi WSW 9.2 mph - N/A   Clear
10:53 AM 70.0 °F 39.0 °F 32% 30.00 in 10.0 mi West 8.1 mph - N/A   Clear
11:53 AM 75.9 °F 35.1 °F 23% 29.96 in 10.0 mi SSW 15.0 mph 19.6 mph N/A   Clear
12:53 PM 78.1 °F 34.0 °F 20% 29.94 in 10.0 mi SW 13.8 mph 20.7 mph N/A   Clear
1:53 PM 82.0 °F 35.1 °F 18% 29.86 in 10.0 mi WSW 12.7 mph 19.6 mph N/A   Clear
2:53 PM 86.0 °F 30.0 °F 13% 29.83 in 10.0 mi SW 13.8 mph 19.6 mph N/A   Clear
3:53 PM 87.1 °F 24.1 °F 10% 29.79 in 10.0 mi West 18.4 mph 21.9 mph N/A   Clear
4:53 PM 86.0 °F 25.0 °F 11% 29.78 in 10.0 mi WSW 17.3 mph 23.0 mph N/A   Clear
5:53 PM 82.9 °F 25.0 °F 12% 29.78 in 10.0 mi WSW 12.7 mph - N/A   Clear
6:53 PM 72.0 °F 30.0 °F 21% 29.81 in 10.0 mi WSW 8.1 mph - N/A   Clear
7:53 PM 66.9 °F 30.9 °F 26% 29.81 in 10.0 mi SSW 10.4 mph - N/A   Clear
8:53 PM 62.1 °F 32.0 °F 32% 29.82 in 10.0 mi SW 8.1 mph - N/A   Clear
9:53 PM 66.9 °F 28.9 °F 24% 29.80 in 10.0 mi West 13.8 mph - N/A   Clear
10:53 PM 64.9 °F 28.9 °F 26% 29.80 in 10.0 mi West 12.7 mph - N/A   Clear
11:53 PM 63.0 °F 28.9 °F 28% 29.78 in 10.0 mi West 11.5 mph - N/A   Clear